CAPE
395 431 285 289 450 339 547 562 745 734 940 1258 658 949 701 827 778 676 728 764 708 799 734 951 825 1471 1449 1567 1345 1496 1591 1213 1141
306 504 360 323 482 402 424 631 777 847 958 817 473 755 355 890 1074 995 450 585 1134 1117 928 912 1021 1510 1601 1542 1691 1639 1494 1363 1252
485 532 475 316 376 490 346 552 754 807 1011 807 136 106 249 354 1022 1285 1071 861 1074 835 567 928 1154 1616 1656 1728 1812 1895 1725 1042 1418
451 504 471 316 462 490 483 684 807 907 1141 720 176 198 640 678 976 1158 1340 1059 1125 1207 1187 1084 1386 1448 1358 1400 1540 1785 1875 1235 1159
527 564 512 498 571 471 682 733 866 1035 1019 928 377 585 519 929 1094 1152 1095 1341 1218 1375 1457 1332 1212 1309 1460 1173 804 1064 1058 1316 1082
943 774 646 651 722 783 886 1055 1102 1306 1290 1201 896 868 1015 906 993 884 803 1065 1353 1328 1569 1592 1323 1178 1414 1514 1392 1287 756 1038 1043
922 1062 871 869 862 1109 1200 1269 1361 1429 1464 1493 1484 1450 1376 1169 1172 1074 1002 989 1220 1373 1421 1585 1621 1490 1388 1425 1389 1273 1322 729 1087
927 1097 1086 1107 1121 1342 1457 1511 1656 1845 1805 1707 1702 1782 1717 1612 1534 1560 1503 1453 1560 1627 1579 1586 1761 1561 1487 1589 1526 1174 1175 1331 1157
1223 916 1121 1205 1379 1579 1672 1818 1853 1789 1837 1804 1747 1790 1733 1702 1769 1811 1773 1690 1790 1943 1899 1638 1535 1411 1480 1704 1496 923 651 784 1053
1502 1364 1204 1440 1505 1574 1656 1714 1756 1747 1808 1784 1748 1715 1663 1677 1693 1679 1589 1565 1514 1510 1454 1584 1561 1668 1587 1563 1530 878 435 323 571
1528 1700 1874 2074 2010 2115 2208 2141 2132 2273 2316 2277 2102 2031 1695 1641 1638 1526 1412 1306 1249 1153 1713 1622 1499 1526 1509 1380 969 423 231 83 141
1056 1635 2150 2426 2383 2376 2235 1977 1655 1542 1420 1343 1154 1080 1080 1036 1011 1007 961 875 982 1170 1029 1067 1159 1237 1235 960 563 117 23 37 238
846 1334 2146 2446 2376 2238 1801 1587 1535 1326 854 910 762 627 538 652 717 785 764 638 548 436 397 461 351 346 347 506 462 187 0 0 56
1181 1281 1924 2273 2165 1816 1618 1381 1196 1133 995 859 691 642 689 650 462 430 450 636 545 525 527 529 441 177 4 4 3 4 0 0 2
1377 1625 1987 2206 1878 1651 1233 1155 1041 683 663 668 738 795 718 316 450 314 246 323 426 611 451 234 74 75 35 5 6 0 0 0 0
1322 1823 2041 2104 1790 1461 1089 976 734 751 1004 1135 1050 930 786 675 500 460 604 369 423 252 360 234 188 48 20 6 4 2 0 0 0
1429 1852 2103 2114 1795 1292 1017 753 686 1039 1276 1059 1162 1018 794 684 527 355 316 253 202 212 171 114 12 7 4 3 11 5 4 2 0
1580 1921 2176 2062 1660 1174 831 612 942 1212 1220 1113 983 917 406 190 63 172 30 0 2 4 0 0 18 14 14 14 10 2 0 0 2
1856 1882 2170 1916 1416 1021 596 915 1357 1237 1221 1196 924 487 210 20 0 0 1 2 0 0 0 0 0 0 0 1 0 0 0 0 0
1966 1833 2089 1859 1334 780 609 1087 1477 1189 1186 1116 801 418 102 0 0 1 10 9 2 0 0 0 0 0 0 0 0 0 0 0 0
CIN
-83 -85 -81 -76 -56 -62 -40 -44 -51 -57 -67 -54 -97 -43 -50 -34 -36 -20 -16 -1 -3 -1 -2 -1 -1 -17 -13 -13 -6 -9 -1 -6 -2
-94 -93 -86 -100 -88 -73 -58 -49 -61 -104 -91 -116 -105 -86 -104 -40 -27 -24 -14 -7 -2 -2 -1 -3 -1 -1 -9 -10 -6 -3 -1 -2 -0
-79 -127 -123 -124 -101 -72 -69 -56 -58 -70 -89 -87 -115 -132 -130 -69 -24 -22 -21 -15 -8 -8 -5 -8 -2 -1 -3 -4 -4 -4 -3 -2 -1
-54 -112 -142 -138 -87 -54 -57 -49 -54 -63 -86 -85 -102 -67 -53 -35 -17 -12 -16 -20 -20 -17 -9 -11 -12 -4 -3 -3 -2 -2 -4 -13 -5
-76 -129 -158 -129 -92 -77 -48 -56 -59 -71 -70 -67 -71 -62 -98 -44 -22 -15 -12 -19 -23 -20 -14 -13 -19 -13 -5 -5 -11 -4 -5 -2 -11
-117 -161 -149 -106 -87 -92 -87 -69 -68 -72 -70 -61 -61 -74 -64 -70 -54 -69 -46 -17 -18 -17 -12 -13 -7 -12 -10 -12 -8 -10 -13 -7 -2
-89 -130 -153 -103 -96 -98 -96 -99 -93 -97 -87 -84 -76 -63 -66 -62 -64 -33 -32 -25 -6 -10 -12 -7 -5 -4 -6 -5 -13 -5 -7 -7 -5
-72 -87 -123 -112 -97 -105 -116 -127 -122 -117 -104 -92 -77 -76 -79 -73 -57 -33 -25 -21 -13 -4 -6 -11 -7 -4 -8 -4 -1 -1 -1 -1 -4
-69 -82 -85 -93 -88 -107 -125 -124 -129 -140 -125 -109 -98 -81 -75 -66 -57 -32 -24 -20 -15 -3 -3 -7 -8 -18 -6 -0 -5 -12 -25 -25 -2
-63 -67 -73 -87 -96 -104 -108 -121 -131 -128 -114 -104 -88 -74 -72 -66 -62 -44 -38 -27 -20 -18 -21 -10 -8 -2 -2 -2 -1 -18 -65 -69 -35
-70 -76 -82 -81 -73 -98 -117 -110 -90 -72 -44 -38 -45 -45 -63 -54 -46 -39 -35 -25 -19 -28 -0 -0 -1 -0 -0 -0 -6 -58 -91 -119 -85
-57 -86 -87 -87 -97 -116 -134 -147 -163 -125 -133 -129 -142 -133 -126 -118 -109 -88 -73 -56 -28 -12 -16 -14 -5 -0 -0 -4 -16 -79 -125 -114 -2
-94 -91 -95 -110 -127 -162 -190 -202 -188 -163 -185 -175 -196 -208 -197 -157 -132 -95 -85 -100 -102 -108 -92 -68 -70 -45 -27 -6 -5 -16 -0 -0 -43
-105 -91 -112 -120 -153 -200 -205 -228 -202 -154 -154 -144 -178 -169 -140 -135 -158 -153 -138 -97 -99 -84 -70 -62 -60 -105 -0 -0 -0 -0 -0 -0 -7
-113 -97 -107 -108 -155 -197 -263 -235 -213 -214 -190 -199 -153 -131 -139 -226 -153 -174 -211 -173 -125 -65 -70 -104 -176 -160 -167 -0 -0 -0 -0 -0 -0
-115 -107 -104 -104 -140 -215 -263 -258 -254 -218 -199 -143 -121 -109 -115 -119 -123 -111 -81 -121 -90 -122 -55 -87 -109 -185 -95 -0 -0 -0 -0 -0 -0
-142 -121 -112 -95 -131 -212 -271 -299 -268 -189 -135 -158 -85 -79 -91 -82 -83 -127 -127 -136 -148 -126 -140 -154 -0 -1 -2 -3 -0 -0 -0 -0 -0
-141 -134 -122 -84 -105 -188 -277 -295 -211 -130 -102 -89 -78 -64 -105 -179 -300 -174 -84 -0 -0 -3 -0 -5 -89 -0 -0 -0 -0 -0 -0 -0 -0
-138 -134 -93 -90 -145 -225 -300 -218 -120 -112 -74 -35 -33 -68 -105 -320 -0 -0 -1 -1 -0 -0 -0 -0 -0 -0 -1 -0 -0 -0 -0 -0 -0
-94 -111 -99 -131 -205 -272 -282 -165 -99 -107 -53 -18 -30 -37 -134 -148 -0 -2 -0 -0 -1 -0 -0 -0 -0 -0 -0 -0 -0 -0 -0 -0 -0
Wind_Speed
6 5 13 13 14 18 13 11 12 13 16 10 9 9 12 14 18 28 34 31 22 12 29 4 13 21 23 21 12 25 26 28 28
10 2 8 13 12 11 10 11 14 13 15 11 10 7 9 14 19 19 22 28 5 8 20 24 7 10 21 28 29 29 28 28 27
11 9 2 9 16 15 13 13 10 10 14 15 10 9 10 21 20 16 16 17 19 9 5 8 25 3 3 7 14 24 21 26 20
12 10 5 6 9 15 13 12 9 9 11 16 17 19 18 19 17 17 13 13 16 17 11 7 6 6 7 11 14 8 8 12 27
12 12 6 4 8 11 11 11 12 12 10 12 19 9 6 10 11 12 13 10 15 13 15 9 10 9 9 10 9 15 21 20 19
10 10 6 5 8 10 8 8 8 6 6 5 7 8 8 10 9 13 15 9 10 9 8 9 10 8 9 11 14 17 19 21 21
7 7 5 6 8 8 6 8 9 7 6 5 4 5 7 8 11 14 15 11 8 8 8 8 8 9 10 12 16 18 20 20 23
3 5 6 8 8 9 7 5 4 7 6 4 5 6 6 7 7 7 8 9 8 8 9 9 11 12 12 15 17 19 19 23 28
4 3 9 10 8 9 8 5 2 2 1 2 4 4 4 6 5 6 7 7 8 8 9 11 14 16 15 15 18 17 18 23 24
2 5 3 9 11 10 10 8 3 3 4 4 6 7 8 6 5 4 4 6 7 10 10 10 11 14 15 15 17 23 24 23 25
6 5 4 3 2 2 6 8 6 5 5 5 5 7 9 11 11 10 9 7 8 8 7 10 12 10 11 14 19 19 23 24 29
18 12 7 4 3 3 3 4 6 6 6 5 6 8 10 12 12 12 11 9 8 10 11 13 13 10 10 12 15 18 15 20 24
20 14 7 6 5 3 2 3 6 6 6 6 6 7 9 11 10 10 10 11 10 11 10 9 9 10 13 14 13 17 16 16 20
19 15 10 7 9 6 3 4 5 5 5 6 6 6 7 9 9 10 10 10 11 11 11 11 11 11 12 14 15 17 20 18 15
18 13 9 10 9 9 5 5 4 5 5 6 6 7 8 9 10 11 11 11 12 12 12 12 13 13 14 14 15 17 19 20 18
18 11 8 11 10 8 5 3 5 4 5 5 6 7 8 9 10 11 12 12 12 12 12 12 13 15 16 16 17 17 18 19 17
19 12 8 11 11 10 7 3 3 4 5 6 7 8 9 10 11 11 12 12 13 13 12 12 13 14 15 16 16 17 18 17 17
19 15 9 12 13 12 10 5 1 3 5 7 9 10 11 12 13 12 13 15 15 14 15 14 14 14 15 15 16 16 17 17 16
19 15 9 12 13 11 10 6 2 3 5 6 9 11 12 13 14 13 13 11 12 15 15 15 15 15 16 15 15 14 14 14 15
21 15 12 9 13 13 10 7 4 1 6 6 8 11 12 14 14 12 9 9 10 12 14 15 15 15 14 14 13 13 12 12 13
Wind_Direction
337 154 168 174 183 175 178 185 168 160 159 166 161 157 158 159 167 190 210 240 260 276 246 179 163 179 189 179 156 253 255 257 262
319 350 170 174 191 206 205 188 173 174 162 169 174 223 182 168 173 177 181 196 194 278 274 264 292 165 179 239 221 239 254 261 269
316 308 218 179 171 183 180 172 181 186 167 168 167 236 180 178 178 176 178 177 184 191 257 277 269 218 225 290 285 268 277 273 289
320 318 308 191 185 170 181 172 176 177 169 168 161 160 166 173 176 179 179 182 183 188 194 214 235 255 274 288 287 280 284 294 279
322 320 344 147 167 173 180 181 167 169 173 172 178 172 186 176 175 176 181 189 185 187 191 202 208 217 267 279 279 288 288 289 290
330 349 16 109 137 151 197 197 226 215 195 203 193 186 191 195 197 190 189 198 198 206 210 206 203 225 240 266 279 282 287 288 289
349 3 36 101 130 148 201 238 249 244 238 216 217 194 192 196 192 192 192 200 223 220 231 250 248 260 258 270 278 280 283 282 283
61 335 46 97 122 133 147 169 235 263 267 238 202 201 209 206 206 204 206 210 228 249 255 252 268 277 275 281 285 283 282 284 281
128 111 105 99 98 106 116 118 122 289 257 212 265 247 214 202 211 224 228 225 234 249 262 270 278 280 277 280 284 285 282 282 285
164 156 159 129 127 123 119 113 69 345 327 311 295 293 293 294 291 253 243 253 266 275 275 277 274 282 281 281 284 291 292 288 289
273 245 213 240 139 92 99 90 66 25 0 336 321 313 305 302 305 307 306 300 292 289 279 283 284 278 277 285 290 293 293 294 294
273 269 249 191 162 125 86 51 43 9 13 9 348 326 311 306 313 315 316 318 316 309 305 301 299 295 287 287 291 295 296 301 300
274 276 247 197 172 169 111 39 46 42 23 10 354 339 319 317 330 335 335 335 339 338 342 340 332 323 319 315 307 306 301 297 296
286 278 254 204 160 169 154 95 57 40 32 17 15 18 355 348 351 347 351 353 353 354 350 349 350 351 343 332 325 319 313 311 303
293 283 248 200 194 157 152 115 70 45 11 15 10 0 356 353 356 354 352 350 350 348 354 356 355 353 352 351 345 337 330 324 317
288 292 244 201 195 180 170 153 93 53 22 14 3 349 348 350 353 351 347 346 344 345 344 345 349 346 345 348 351 350 345 340 339
281 286 246 208 207 199 206 209 92 32 8 348 338 334 335 338 343 343 345 346 343 341 345 344 345 349 346 346 349 349 351 350 348
279 275 268 210 220 225 230 232 250 340 345 340 329 328 325 328 331 333 335 334 334 339 340 340 344 346 343 342 342 348 350 350 350
278 274 259 223 217 218 221 222 240 301 336 335 324 323 322 322 325 330 331 341 347 345 347 347 344 343 340 346 347 353 355 0 4
272 272 255 226 219 217 208 215 238 289 306 333 336 328 328 327 324 328 338 348 350 346 349 352 353 352 355 357 4 9 19 24 21